[[{"header":{"parameterUnit":"m.s-1","parameterCategory":1,"la1":30.2991,"la2":30.254,"lo1":-89.0895,"lo2":-89.0444,"dy":0.0017,"dx":0.0017,"nx":28,"ny":28,"refTime":"2024-06-11T09:00:00:Z","depth":0,"parameterNumber":2,"parameterNumberName":"U-component_of_WINDS"},"data":[0,0,0,0,0,0,0,0,0,0,0,0,0,0,0,0,0,0,0,0,0,0,0,0,0,0,0,0,0,0,0,0,0,0,0,0,0,0,0,0,0,0,0,0,0,0,0,0,0,0,0,0,0,0,0,0,0,0,0.1481,0.1481,0,0.1524,0.1525,0.1525,0.1579,0.158,0.158,0.1581,0.1623,0.1623,0.1623,0,0,0,0,0,0,0,0,0,0,0,0,0,0.1442,0.1442,0.1481,0.1481,0.1482,0.1524,0.1525,0.1525,0.1579,0.158,0.1581,0.1582,0.1622,0.1623,0.1623,0,0,0,0,0,0,0,0,0,0,0,0,0,0.1469,0.1442,0.1481,0.1514,0.1517,0.1524,0.1525,0.1526,0.1578,0.158,0.1581,0.1582,0.1622,0.1623,0.1623,0.16,0,0,0.1625,0.1625,0,0,0,0,0,0,0,0,0.1467,0.147,0.1508,0.1511,0.1515,0.1548,0.1526,0.1551,0.1578,0.1555,0.1581,0.1583,0.1596,0.1599,0.1604,0.1602,0.1604,0.1625,0.1625,0.1625,0.1625,0,0,0,0,0,0,0,0.1465,0.1469,0.1498,0.1509,0.1513,0.1525,0.1531,0.1531,0.1568,0.1557,0.1561,0.1566,0.1598,0.1604,0.1606,0.1605,0.1625,0.1625,0.1625,0.1626,0.1586,0.1585,0,0,0,0,0,0,0.1459,0.1467,0.1497,0.1499,0.1494,0.1525,0.1531,0.1536,0.1568,0.1574,0.1565,0.1568,0.1602,0.1605,0.1607,0.1582,0.1625,0.1626,0.1626,0.1587,0.1586,0.1584,0,0,0,0,0,0,0.1458,0.1461,0.1495,0.1484,0.149,0.1525,0.1529,0.1536,0.1541,0.1574,0.158,0.1563,0.1603,0.1607,0.1602,0.1584,0.1626,0.1626,0.1589,0.1587,0.1585,0.1531,0,0,0,0,0,0,0.1457,0.146,0.1453,0.1484,0.149,0.1489,0.1528,0.1536,0.1542,0.1547,0.1574,0.158,0.1605,0.1601,0.1602,0.1586,0.1627,0.1591,0.1588,0.1586,0.1535,0.1528,0.1522,0,0,0,0,0,0.1455,0.1435,0.1452,0.1455,0.1481,0.1488,0.1492,0.1521,0.1541,0.1533,0.1554,0.1579,0.1586,0.16,0.1602,0.1585,0.1592,0.1589,0.1586,0.1538,0.1529,0.1522,0,0,0,0,0,0,0.14,0.144,0.1459,0.1449,0.1465,0.1497,0.1488,0.1511,0.1521,0.1525,0.1561,0.1567,0.1557,0.1571,0.1586,0.1565,0.1593,0.159,0.1556,0.1548,0.1541,0.1537,0.1627,0,0,0,0,0,0.1387,0.139,0.1425,0.1412,0.142,0.1452,0.1457,0.1478,0.1496,0.1503,0.1523,0.1538,0.1544,0.1547,0.1554,0.1538,0.1544,0.1527,0.1521,0.1515,0.1512,0.1503,0.1496,0.1575,0.1575,0.1575,0,0,0.1359,0.1381,0.1381,0.1402,0.1417,0.1418,0.1457,0.1458,0.1459,0.1502,0.1499,0.1515,0.1534,0.1523,0.152,0.1534,0.1492,0.1512,0.1507,0.1507,0.15,0.1492,0.1485,0.1573,0.1573,0.1573,0,0,0.1309,0.1327,0.1319,0.1333,0.1356,0.1378,0.1376,0.1405,0.1417,0.1415,0.1448,0.145,0.1459,0.1471,0.1479,0.1435,0.1458,0.1436,0.1401,0.1393,0.1386,0.1381,0.1364,0.1357,0.1433,0.1433,0.1433,0,0.1271,0.1276,0.1311,0.1309,0.1317,0.1358,0.1349,0.1361,0.1384,0.1388,0.1405,0.1418,0.1434,0.1426,0.1416,0.1421,0.1419,0.1432,0.1385,0.138,0.1375,0.1359,0.1353,0.143,0.1431,0.1431,0.1431,0,0.1228,0.1231,0.1221,0.1244,0.1251,0.1245,0.1278,0.1281,0.1303,0.1322,0.1319,0.134,0.1352,0.1353,0.1373,0.1348,0.1356,0.1378,0.1407,0.1364,0.135,0.1344,0.1426,0.1427,0.1428,0.1429,0,0,0.1142,0.1185,0.1181,0.1192,0.122,0.1223,0.1219,0.1232,0.1233,0.1248,0.1245,0.1253,0.1274,0.1282,0.1305,0.1298,0.126,0.1321,0.1322,0.1307,0.1231,0.1213,0.1205,0.1277,0.1276,0.1275,0.1229,0,0.1096,0.1093,0.1125,0.1112,0.1115,0.1154,0.1151,0.1168,0.1187,0.1191,0.1212,0.1216,0.1245,0.125,0.1245,0.1266,0.1245,0.127,0.1272,0.1272,0.1264,0.1198,0.1178,0.1134,0.1224,0.1223,0.1222,0,0.1041,0.1055,0.1043,0.1072,0.1074,0.1071,0.1085,0.1089,0.1109,0.1123,0.1133,0.116,0.1158,0.1187,0.1183,0.1199,0.1203,0.1213,0.1212,0.1212,0.1243,0.1194,0.1121,0.1113,0.1214,0.1215,0.1215,0,0.0978,0.0993,0.0988,0.0996,0.103,0.1027,0.1041,0.1062,0.1068,0.1081,0.1084,0.1096,0.1102,0.111,0.1138,0.1157,0.1131,0.1163,0.1141,0.1141,0.1132,0.1132,0.1056,0.1138,0.1138,0.1138,0.1138,0,0.0922,0.0912,0.096,0.0956,0.0947,0.0983,0.0973,0.0991,0.1009,0.1009,0.1045,0.1044,0.1083,0.1086,0.1109,0.1102,0.1104,0.1115,0.112,0.111,0.1109,0.1111,0.1114,0.1136,0.1137,0.1137,0.1137,0,0.0848,0.088,0.0876,0.091,0.0918,0.091,0.0938,0.0936,0.0958,0.0957,0.0959,0.0993,0.0999,0.1029,0.1042,0.1057,0.1041,0.1054,0.1034,0.1037,0.1014,0.1015,0.0936,0.0926,0.1015,0.1014,0.1014,0,0.0809,0.0803,0.0837,0.084,0.0852,0.0857,0.0863,0.0899,0.0904,0.0927,0.0921,0.093,0.0939,0.0946,0.0971,0.0981,0.0993,0.0965,0.0994,0.0984,0.099,0.0989,0.0988,0.0957,0.0956,0.0955,0.0954,0,0.0736,0.0752,0.076,0.0774,0.0781,0.0793,0.0808,0.0808,0.0848,0.0852,0.0858,0.0865,0.0879,0.0886,0.0901,0.0914,0.094,0.0945,0.0941,0.0929,0.0917,0.0921,0.1014,0.0946,0.0947,0.0948,0.0948,0.0949,0.0677,0.0673,0.0696,0.0704,0.072,0.0732,0.0732,0.0754,0.0761,0.0775,0.0796,0.08,0.082,0.0842,0.0854,0.0856,0.0871,0.0865,0.0863,0.086,0.0854,0.0919,0.0859,0.0859,0.086,0.086,0.086,0,0.0604,0.0621,0.0629,0.0648,0.0654,0.0681,0.0698,0.0701,0.0704,0.0721,0.073,0.0737,0.0745,0.0772,0.0782,0.0779,0.0791,0.078,0.078,0.0782,0.0841,0.0843,0.077,0.077,0.077,0.077,0.077,0.077,0.0567,0.0561,0.058,0.0583,0.06,0.0605,0.0612,0.0624,0.0638,0.0645,0.0652,0.067,0.0691,0.0703,0.0711,0.0719,0.072,0.0705,0.0716,0.077,0.0778,0.0786,0.0788,0.0705,0.0705,0.0657,0.0656,0.0656]},{"header":{"parameterUnit":"m.s-1","parameterCategory":1,"la1":30.2991,"la2":30.254,"lo1":-89.0895,"lo2":-89.0444,"dy":0.0017,"dx":0.0017,"nx":28,"ny":28,"refTime":"2024-06-11T09:00:00:Z","depth":0,"parameterNumber":3,"parameterNumberName":"V-component_of_WINDS"},"data":[0,0,0,0,0,0,0,0,0,0,0,0,0,0,0,0,0,0,0,0,0,0,0,0,0,0,0,0,0,0,0,0,0,0,0,0,0,0,0,0,0,0,0,0,0,0,0,0,0,0,0,0,0,0,0,0,0,0,-0.0201,-0.0202,0,-0.0302,-0.0303,-0.0304,-0.0377,-0.0378,-0.0378,-0.0379,-0.0481,-0.0483,-0.0485,0,0,0,0,0,0,0,0,0,0,0,0,0,-0.007,-0.0072,-0.0201,-0.0203,-0.0204,-0.0302,-0.0303,-0.0305,-0.0377,-0.0378,-0.0378,-0.0379,-0.0481,-0.0483,-0.0486,0,0,0,0,0,0,0,0,0,0,0,0,0,-0.0144,-0.0073,-0.0201,-0.0252,-0.0257,-0.0302,-0.0303,-0.0305,-0.0377,-0.0378,-0.0379,-0.0379,-0.048,-0.0483,-0.0486,-0.0488,0,0,-0.0496,-0.0497,0,0,0,0,0,0,0,0,-0.014,-0.0149,-0.0243,-0.0248,-0.0255,-0.0328,-0.0295,-0.0366,-0.0377,-0.0331,-0.0379,-0.038,-0.0429,-0.0437,-0.0454,-0.0493,-0.0497,-0.0496,-0.0498,-0.05,-0.0501,0,0,0,0,0,0,0,-0.0135,-0.0145,-0.0241,-0.0244,-0.0251,-0.0269,-0.028,-0.0308,-0.0374,-0.0335,-0.0341,-0.0352,-0.0433,-0.045,-0.0457,-0.0499,-0.0496,-0.0499,-0.0501,-0.0502,-0.0543,-0.0543,0,0,0,0,0,0,-0.0122,-0.014,-0.0238,-0.0244,-0.0198,-0.027,-0.0283,-0.0303,-0.0374,-0.0386,-0.0351,-0.0355,-0.0444,-0.0453,-0.0461,-0.0468,-0.05,-0.0503,-0.0504,-0.0544,-0.0543,-0.0542,0,0,0,0,0,0,-0.0119,-0.013,-0.0234,-0.0194,-0.0208,-0.0272,-0.0294,-0.0305,-0.0323,-0.0386,-0.0398,-0.0357,-0.0446,-0.0456,-0.0481,-0.0472,-0.0504,-0.0507,-0.0545,-0.0544,-0.0543,-0.0481,0,0,0,0,0,0,-0.0115,-0.0128,-0.013,-0.0193,-0.021,-0.0253,-0.0293,-0.0306,-0.0328,-0.0334,-0.0395,-0.0406,-0.0447,-0.0475,-0.0484,-0.0477,-0.051,-0.0546,-0.0545,-0.0543,-0.0484,-0.0478,-0.0473,0,0,0,0,0,-0.011,-0.0109,-0.013,-0.0141,-0.0214,-0.0252,-0.0262,-0.031,-0.0327,-0.033,-0.037,-0.0404,-0.0471,-0.0477,-0.0487,-0.0482,-0.0547,-0.0545,-0.0543,-0.0487,-0.0479,-0.0473,0,0,0,0,0,0,-0.0044,-0.0118,-0.0142,-0.0162,-0.02,-0.0264,-0.0269,-0.03,-0.0334,-0.0338,-0.0395,-0.0408,-0.0427,-0.0457,-0.0462,-0.0487,-0.0513,-0.0513,-0.0467,-0.046,-0.0455,-0.0448,-0.0512,0,0,0,0,0,-0.0031,-0.0056,-0.012,-0.0131,-0.0149,-0.0205,-0.0223,-0.0257,-0.0298,-0.0315,-0.0357,-0.0396,-0.0426,-0.0444,-0.0476,-0.0488,-0.0502,-0.0489,-0.0483,-0.0478,-0.0478,-0.0487,-0.0482,-0.0536,-0.0536,-0.0536,0,0,-0.0006,-0.005,-0.0062,-0.0119,-0.0152,-0.0176,-0.0218,-0.0242,-0.0261,-0.0319,-0.0345,-0.0376,-0.0423,-0.0442,-0.0452,-0.0467,-0.0466,-0.0476,-0.0471,-0.0474,-0.0484,-0.0479,-0.0474,-0.0535,-0.0535,-0.0535,0,0,0.0027,-0.0009,-0.0022,-0.0054,-0.0104,-0.0141,-0.0144,-0.0203,-0.0226,-0.0253,-0.0297,-0.0319,-0.0369,-0.0401,-0.0424,-0.04,-0.0433,-0.0408,-0.0379,-0.0386,-0.0382,-0.0379,-0.0371,-0.0367,-0.0408,-0.0407,-0.0407,0,0.0064,0.0025,-0.0025,-0.0046,-0.0069,-0.0122,-0.0136,-0.0164,-0.0221,-0.0236,-0.0252,-0.0316,-0.0351,-0.0378,-0.0372,-0.0388,-0.0393,-0.0403,-0.0379,-0.0376,-0.0373,-0.0366,-0.0363,-0.0404,-0.0405,-0.0405,-0.0405,0,0.0073,0.0048,0.0043,-0.0011,-0.0034,-0.0051,-0.0103,-0.0121,-0.0151,-0.0186,-0.0212,-0.0256,-0.0297,-0.0305,-0.0335,-0.0336,-0.0343,-0.0368,-0.0396,-0.0364,-0.0358,-0.0356,-0.04,-0.0401,-0.0402,-0.0403,0,0,0.0143,0.0063,0.0062,0.0037,-0.0021,-0.0041,-0.006,-0.01,-0.0114,-0.015,-0.0168,-0.0208,-0.0231,-0.0256,-0.029,-0.0297,-0.0275,-0.0321,-0.0322,-0.0311,-0.0278,-0.026,-0.0257,-0.0296,-0.0296,-0.0296,-0.0275,0,0.0166,0.0128,0.0084,0.0062,0.0038,-0.0012,-0.0028,-0.0064,-0.0097,-0.0122,-0.0158,-0.0186,-0.0213,-0.0229,-0.0237,-0.0276,-0.027,-0.0278,-0.0313,-0.0314,-0.0301,-0.0254,-0.0235,-0.0213,-0.0273,-0.0272,-0.0272,0,0.0187,0.0153,0.0129,0.0074,0.0062,0.0048,0.0009,-0.0014,-0.0056,-0.0079,-0.0106,-0.0142,-0.0164,-0.0187,-0.0218,-0.0222,-0.0239,-0.026,-0.026,-0.0266,-0.0292,-0.026,-0.0208,-0.0205,-0.0269,-0.0269,-0.027,0,0.0239,0.0187,0.0166,0.0147,0.0083,0.0074,0.0047,0.0004,-0.0016,-0.005,-0.0064,-0.01,-0.0119,-0.0146,-0.019,-0.0203,-0.0215,-0.0243,-0.0236,-0.0234,-0.0238,-0.0237,-0.0188,-0.0246,-0.0246,-0.0246,-0.0246,0,0.0268,0.0255,0.0189,0.0175,0.016,0.011,0.0096,0.0065,0.0027,0.0008,-0.0036,-0.0054,-0.011,-0.0134,-0.0168,-0.0188,-0.0197,-0.0216,-0.0225,-0.0213,-0.021,-0.0226,-0.0229,-0.0245,-0.0245,-0.0245,-0.0245,0,0.0323,0.0278,0.0251,0.0194,0.0179,0.017,0.012,0.0106,0.0072,0.0048,0.004,-0.0014,-0.0044,-0.009,-0.0134,-0.0157,-0.0171,-0.0186,-0.0157,-0.0163,-0.0153,-0.0154,-0.0114,-0.0111,-0.0169,-0.0168,-0.0167,0,0.0344,0.0333,0.0274,0.0258,0.0233,0.0207,0.0186,0.0137,0.0117,0.007,0.0062,0.0028,-0.0001,-0.0047,-0.009,-0.0123,-0.0139,-0.0123,-0.0145,-0.0132,-0.014,-0.0139,-0.0141,-0.0118,-0.0117,-0.0117,-0.0116,0,0.0386,0.0364,0.0336,0.03,0.0276,0.0246,0.0213,0.0202,0.0146,0.0127,0.0095,0.0073,0.0029,-0.0004,-0.0043,-0.007,-0.0102,-0.0108,-0.0109,-0.0097,-0.008,-0.009,-0.0144,-0.011,-0.011,-0.0111,-0.0111,-0.0111,0.0423,0.0411,0.0369,0.0338,0.0309,0.028,0.0264,0.0228,0.0202,0.0161,0.0135,0.0106,0.0065,0.001,-0.0016,-0.0039,-0.0053,-0.0053,-0.0053,-0.0053,-0.0049,-0.0075,-0.0046,-0.0046,-0.0047,-0.0047,-0.0047,0,0.0462,0.0433,0.0406,0.0362,0.0339,0.0311,0.0274,0.0257,0.0231,0.0196,0.0169,0.0134,0.0102,0.0058,0.0024,0.0014,-0.0002,0.0006,0.0006,0.0,-0.0034,-0.0031,0.0019,0.0019,0.0019,0.0019,0.0019,0.0019,0.048,0.0458,0.0432,0.0396,0.0367,0.0338,0.0319,0.0292,0.0264,0.0227,0.0201,0.0172,0.0134,0.0097,0.0067,0.0055,0.0044,0.0057,0.004,0.0009,0.0003,-0.0003,-0.0001,0.0055,0.0055,0.0076,0.0076,0.0076]}]]